| time (UTC) | temp C | wind direction | speed KPH | gust KPH | rain 1hr cm | rain 24hr cm | rain mn cm | humidity % | barometer mb |
| 20260506121005 | 18 | 143 | 0.0 | 0.0 | 0.00 | 0.46 | 0.00 | 64 | 1010.5 |
| 20260506120504 | 18 | 143 | 1.6 | 8.0 | 0.00 | 0.46 | 0.00 | 64 | 1010.5 |
| 20260506120005 | 18 | 99 | 3.2 | 8.0 | 0.00 | 0.46 | 0.00 | 63 | 1010.5 |
| 20260506115505 | 17 | 109 | 0.0 | 1.6 | 0.00 | 0.46 | 0.00 | 63 | 1010.5 |
| 20260506114005 | 17 | 167 | 4.8 | 9.7 | 0.00 | 0.46 | 0.00 | 62 | 1010.8 |
| 20260506113505 | 17 | 167 | 4.8 | 9.7 | 0.00 | 0.46 | 0.00 | 62 | 1010.8 |
| 20260506113005 | 17 | 133 | 1.6 | 3.2 | 0.00 | 0.46 | 0.00 | 63 | 1010.5 |
| 20260506112505 | 17 | 137 | 1.6 | 3.2 | 0.00 | 0.46 | 0.00 | 63 | 1010.8 |
| 20260506112005 | 17 | 137 | 1.6 | 4.8 | 0.00 | 0.46 | 0.00 | 63 | 1010.8 |
| 20260506111505 | 17 | 116 | 1.6 | 4.8 | 0.00 | 0.46 | 0.00 | 62 | 1010.8 |
| 20260506111005 | 18 | 132 | 3.2 | 4.8 | 0.00 | 0.46 | 0.00 | 62 | 1011.2 |
| 20260506110505 | 18 | 133 | 3.2 | 4.8 | 0.00 | 0.46 | 0.00 | 62 | 1011.2 |
| 20260506110005 | 18 | 248 | 1.6 | 1.6 | 0.00 | 0.46 | 0.00 | 63 | 1011.2 |
| 20260506105505 | 18 | 276 | 0.0 | 1.6 | 0.00 | 0.46 | 0.00 | 62 | 1011.2 |
| 20260506105005 | 18 | 292 | 0.0 | 1.6 | 0.00 | 0.46 | 0.00 | 61 | 1011.2 |
| 20260506103505 | 17 | 97 | 0.0 | 3.2 | 0.00 | 0.46 | 0.00 | 61 | 1011.5 |
| 20260506103005 | 17 | 129 | 0.0 | 1.6 | 0.00 | 0.46 | 0.00 | 66 | 1011.2 |
| 20260506102505 | 17 | 110 | 0.0 | 1.6 | 0.00 | 0.46 | 0.00 | 65 | 1011.3 |
| 20260506102004 | 17 | 104 | 0.0 | 1.6 | 0.00 | 0.46 | 0.00 | 64 | 1011.5 |
| 20260506100006 | 17 | 128 | 0.0 | 0.0 | 0.00 | 0.46 | 0.00 | 64 | 1011.5 |
| 20260506095505 | 17 | 126 | 3.2 | 4.8 | 0.00 | 0.46 | 0.00 | 64 | 1011.7 |
| 20260506095005 | 17 | 124 | 3.2 | 4.8 | 0.00 | 0.46 | 0.00 | 63 | 1011.9 |
| 20260506094505 | 18 | 119 | 0.0 | 1.6 | 0.00 | 0.46 | 0.00 | 66 | 1011.9 |
| 20260506094005 | 17 | 264 | 0.0 | 1.6 | 0.00 | 0.46 | 0.00 | 66 | 1011.9 |
| 20260506093005 | 16 | 114 | 0.0 | 0.0 | 0.00 | 0.46 | 0.00 | 67 | 1011.9 |
| 20260506092505 | 16 | 122 | 0.0 | 0.0 | 0.00 | 0.46 | 0.00 | 67 | 1012.0 |
| 20260506092004 | 16 | 129 | 0.0 | 3.2 | 0.00 | 0.46 | 0.00 | 67 | 1012.2 |
| 20260506091505 | 16 | 121 | 3.2 | 3.2 | 0.00 | 0.46 | 0.00 | 67 | 1011.5 |
| 20260506091005 | 17 | 124 | 1.6 | 3.2 | 0.00 | 0.46 | 0.00 | 67 | 1011.5 |
| 20260506090505 | 17 | 127 | 0.0 | 0.0 | 0.00 | 0.46 | 0.00 | 67 | 1011.5 |
| 20260506090004 | 17 | 116 | 0.0 | 0.0 | 0.00 | 0.46 | 0.00 | 66 | 1011.9 |
| 20260506085005 | 17 | 139 | 1.6 | 1.6 | 0.00 | 0.46 | 0.00 | 68 | 1011.9 |
| 20260506084504 | 16 | 224 | 0.0 | 3.2 | 0.00 | 0.46 | 0.00 | 65 | 1011.9 |
| 20260506084005 | 16 | 149 | 1.6 | 3.2 | 0.00 | 0.46 | 0.00 | 67 | 1011.9 |
| 20260506083505 | 16 | 132 | 1.6 | 3.2 | 0.00 | 0.46 | 0.00 | 68 | 1011.9 |
| 20260506083004 | 17 | 120 | 1.6 | 3.2 | 0.00 | 0.46 | 0.00 | 66 | 1011.9 |
| 20260506082504 | 17 | 135 | 0.0 | 3.2 | 0.00 | 0.46 | 0.00 | 70 | 1011.9 |
| 20260506081504 | 17 | 130 | 0.0 | 0.0 | 0.00 | 0.46 | 0.00 | 70 | 1011.9 |
| 20260506080505 | 16 | 309 | 0.0 | 0.0 | 0.00 | 0.46 | 0.00 | 66 | 1011.9 |
| 20260506073505 | 16 | 267 | 0.0 | 1.6 | 0.00 | 0.46 | 0.00 | 70 | 1012.2 |
| 20260506073005 | 17 | 295 | 0.0 | 1.6 | 0.00 | 0.46 | 0.00 | 70 | 1012.2 |
| 20260506072505 | 16 | 140 | 0.0 | 0.0 | 0.00 | 0.46 | 0.00 | 78 | 1012.2 |
| 20260506072005 | 16 | 140 | 0.0 | 0.0 | 0.00 | 0.46 | 0.00 | 78 | 1012.2 |
| 20260506071504 | 16 | 132 | 0.0 | 0.0 | 0.00 | 0.46 | 0.00 | 79 | 1012.2 |
| 20260506071005 | 15 | 161 | 0.0 | 0.0 | 0.00 | 0.46 | 0.00 | 85 | 1012.5 |
| 20260506070504 | 15 | 161 | 0.0 | 1.6 | 0.00 | 0.46 | 0.00 | 85 | 1012.5 |
| 20260506062505 | 11 | 110 | 0.0 | 0.0 | 0.00 | 0.46 | 0.00 | 98 | 1012.5 |
| 20260506062005 | 11 | 110 | 0.0 | 0.0 | 0.00 | 0.46 | 0.00 | 98 | 1012.5 |
| 20260506061004 | 10 | 97 | 0.0 | 0.0 | 0.00 | 0.46 | 0.00 | 98 | 1012.5 |
| 20260506060520 | 10 | 97 | 0.0 | 0.0 | 0.00 | 0.46 | 0.00 | 98 | 1012.5 |
| 20260506045005 | 8 | 119 | 0.0 | 0.0 | 0.00 | 0.46 | 0.00 | 98 | 1012.9 |
| 20260506044505 | 8 | 121 | 0.0 | 0.0 | 0.00 | 0.46 | 0.00 | 98 | 1012.9 |
| 20260506044005 | 8 | 157 | 0.0 | 0.0 | 0.00 | 0.46 | 0.00 | 98 | 1012.5 |
| 20260506043505 | 8 | 121 | 0.0 | 0.0 | 0.00 | 0.46 | 0.00 | 98 | 1012.9 |
| 20260506043004 | 8 | 121 | 0.0 | 0.0 | 0.00 | 0.46 | 0.00 | 98 | 1012.9 |
| 20260506042504 | 8 | 121 | 0.0 | 0.0 | 0.00 | 0.46 | 0.00 | 98 | 1012.9 |
| 20260506042005 | 8 | 166 | 0.0 | 0.0 | 0.00 | 0.46 | 0.00 | 98 | 1013.2 |
| 20260506041504 | 8 | 167 | 0.0 | 0.0 | 0.00 | 0.46 | 0.00 | 98 | 1013.2 |
| 20260506040505 | 8 | 130 | 0.0 | 0.0 | 0.00 | 0.46 | 0.00 | 98 | 1013.2 |
| 20260506035504 | 8 | 141 | 0.0 | 0.0 | 0.00 | 0.46 | 0.00 | 98 | 1013.2 |
| 20260506035004 | 8 | 141 | 0.0 | 0.0 | 0.00 | 0.46 | 0.00 | 98 | 1013.2 |
| 20260506034504 | 8 | 141 | 0.0 | 0.0 | 0.00 | 0.46 | 0.00 | 98 | 1013.2 |
| 20260506034004 | 8 | 120 | 0.0 | 0.0 | 0.00 | 0.46 | 0.00 | 98 | 1013.2 |
| 20260506033504 | 8 | 111 | 0.0 | 0.0 | 0.00 | 0.46 | 0.00 | 98 | 1013.2 |
| 20260506032504 | 8 | 110 | 0.0 | 0.0 | 0.00 | 0.46 | 0.00 | 98 | 1012.9 |
| 20260506032004 | 8 | 107 | 0.0 | 0.0 | 0.00 | 0.46 | 0.00 | 98 | 1013.2 |
| 20260506031504 | 8 | 111 | 0.0 | 0.0 | 0.00 | 0.46 | 0.00 | 98 | 1013.2 |
| 20260506031004 | 8 | 112 | 0.0 | 0.0 | 0.00 | 0.46 | 0.00 | 98 | 1013.2 |
| 20260506030504 | 9 | 118 | 0.0 | 1.6 | 0.00 | 0.46 | 0.00 | 98 | 1013.2 |
| 20260506030004 | 9 | 129 | 0.0 | 1.6 | 0.00 | 0.46 | 0.00 | 98 | 1013.2 |
| 20260506025505 | 9 | 109 | 0.0 | 0.0 | 0.00 | 0.46 | 0.00 | 97 | 1013.2 |
| 20260506025004 | 9 | 115 | 0.0 | 0.0 | 0.00 | 0.46 | 0.00 | 97 | 1013.5 |
| 20260506024504 | 9 | 132 | 0.0 | 0.0 | 0.00 | 0.46 | 0.00 | 97 | 1013.8 |
| 20260506024005 | 9 | 140 | 0.0 | 1.6 | 0.00 | 0.46 | 0.00 | 97 | 1013.9 |
| 20260506023504 | 9 | 274 | 0.0 | 1.6 | 0.00 | 0.46 | 0.00 | 97 | 1013.5 |
| 20260506023004 | 9 | 123 | 0.0 | 0.0 | 0.00 | 0.46 | 0.00 | 97 | 1013.5 |
| 20260506022504 | 9 | 192 | 0.0 | 1.6 | 0.00 | 0.46 | 0.00 | 97 | 1013.5 |
| 20260506022004 | 9 | 267 | 0.0 | 1.6 | 0.00 | 0.46 | 0.00 | 97 | 1013.5 |
| 20260506021504 | 9 | 276 | 0.0 | 1.6 | 0.00 | 0.46 | 0.00 | 97 | 1013.4 |
| 20260506021004 | 9 | 280 | 0.0 | 0.0 | 0.00 | 0.46 | 0.00 | 97 | 1013.2 |
| 20260506020504 | 9 | 142 | 0.0 | 0.0 | 0.00 | 0.46 | 0.00 | 97 | 1013.2 |
| 20260506020004 | 9 | 252 | 0.0 | 0.0 | 0.00 | 0.46 | 0.00 | 97 | 1013.2 |
| 20260506015504 | 9 | 120 | 0.0 | 0.0 | 0.00 | 0.46 | 0.00 | 97 | 1013.5 |
| 20260506015004 | 9 | 174 | 0.0 | 0.0 | 0.00 | 0.46 | 0.00 | 97 | 1013.5 |
| 20260506014504 | 9 | 184 | 0.0 | 0.0 | 0.00 | 0.46 | 0.00 | 97 | 1013.5 |
| 20260506014004 | 9 | 294 | 0.0 | 0.0 | 0.00 | 0.46 | 0.00 | 97 | 1013.9 |
| 20260506013504 | 9 | 288 | 0.0 | 0.0 | 0.00 | 0.46 | 0.00 | 97 | 1013.5 |
| 20260506013004 | 9 | 112 | 0.0 | 0.0 | 0.00 | 0.46 | 0.00 | 97 | 1013.5 |
| 20260506012504 | 9 | 251 | 0.0 | 0.0 | 0.00 | 0.46 | 0.00 | 97 | 1013.9 |
| 20260506012004 | 9 | 254 | 3.2 | 4.8 | 0.00 | 0.46 | 0.00 | 97 | 1013.9 |
| 20260506011504 | 9 | 257 | 3.2 | 4.8 | 0.00 | 0.46 | 0.00 | 97 | 1013.9 |
| 20260506011004 | 9 | 241 | 0.0 | 1.6 | 0.00 | 0.46 | 0.00 | 97 | 1013.9 |
| 20260506010004 | 10 | 262 | 0.0 | 0.0 | 0.00 | 0.46 | 0.00 | 97 | 1013.9 |
| 20260506005504 | 10 | 242 | 0.0 | 0.0 | 0.00 | 0.46 | 0.00 | 97 | 1013.9 |
| 20260506004504 | 10 | 151 | 0.0 | 0.0 | 0.00 | 0.46 | 0.00 | 97 | 1013.9 |
| 20260506004004 | 10 | 220 | 0.0 | 1.6 | 0.00 | 0.46 | 0.00 | 97 | 1013.9 |
| 20260506003004 | 10 | 288 | 0.0 | 0.0 | 0.00 | 0.46 | 0.00 | 97 | 1013.9 |
| 20260506002504 | 10 | 286 | 0.0 | 1.6 | 0.00 | 0.46 | 0.00 | 97 | 1013.9 |
| 20260506001504 | 10 | 281 | 3.2 | 8.0 | 0.00 | 0.46 | 0.00 | 97 | 1013.9 |
| 20260506001004 | 10 | 233 | 0.0 | 1.6 | 0.00 | 0.46 | 0.00 | 97 | 1014.2 |
| 20260506000504 | 10 | 341 | 0.0 | 1.6 | 0.00 | 0.46 | 0.00 | 97 | 1014.2 |
| 20260506000004 | 10 | 276 | 0.0 | 0.0 | 0.00 | 0.46 | 0.00 | 97 | 1014.2 |
| 20260505235504 | 10 | 277 | 0.0 | 1.6 | 0.00 | 0.46 | 0.00 | 97 | 1014.2 |
| 20260505235004 | 10 | 292 | 0.0 | 4.8 | 0.00 | 0.46 | 0.00 | 97 | 1014.2 |
| 20260505234003 | 10 | 240 | 0.0 | 1.6 | 0.00 | 0.46 | 0.00 | 97 | 1014.6 |
| 20260505233519 | 10 | 114 | 0.0 | 0.0 | 0.00 | 0.46 | 0.00 | 97 | 1014.6 |
| 20260505232504 | 10 | 112 | 0.0 | 0.0 | 0.00 | 0.46 | 0.00 | 97 | 1014.2 |
| 20260505232004 | 10 | 122 | 0.0 | 0.0 | 0.00 | 0.46 | 0.00 | 97 | 1014.6 |
| 20260505231504 | 10 | 223 | 0.0 | 3.2 | 0.00 | 0.46 | 0.00 | 97 | 1014.2 |
| 20260505231004 | 11 | 282 | 1.6 | 3.2 | 0.00 | 0.46 | 0.00 | 96 | 1014.6 |
| 20260505230504 | 11 | 255 | 0.0 | 1.6 | 0.00 | 0.46 | 0.00 | 96 | 1014.2 |
| 20260505230004 | 11 | 289 | 3.2 | 9.7 | 0.00 | 0.46 | 0.00 | 96 | 1014.3 |
| 20260505225504 | 11 | 297 | 4.8 | 9.7 | 0.00 | 0.46 | 0.00 | 97 | 1014.6 |
| 20260505225004 | 11 | 266 | 1.6 | 3.2 | 0.00 | 0.46 | 0.00 | 97 | 1014.2 |
| 20260505224504 | 11 | 237 | 0.0 | 3.2 | 0.00 | 0.46 | 0.00 | 97 | 1014.2 |
| 20260505224004 | 11 | 294 | 1.6 | 3.2 | 0.00 | 0.46 | 0.00 | 97 | 1014.2 |
| 20260505223504 | 11 | 295 | 1.6 | 4.8 | 0.00 | 0.46 | 0.00 | 97 | 1014.2 |
| 20260505222504 | 11 | 162 | 0.0 | 1.6 | 0.00 | 0.46 | 0.00 | 97 | 1014.6 |
| 20260505222004 | 11 | 226 | 0.0 | 1.6 | 0.00 | 0.46 | 0.00 | 97 | 1014.6 |
| 20260505221504 | 11 | 297 | 0.0 | 1.6 | 0.00 | 0.46 | 0.00 | 97 | 1014.6 |
| 20260505221004 | 11 | 163 | 0.0 | 1.6 | 0.03 | 0.46 | 0.00 | 97 | 1014.7 |
| 20260505220504 | 11 | 159 | 1.6 | 8.0 | 0.03 | 0.46 | 0.00 | 97 | 1014.9 |
| 20260505220004 | 11 | 334 | 3.2 | 8.0 | 0.10 | 0.46 | 0.00 | 97 | 1014.9 |
| 20260505215004 | 11 | 15 | 0.0 | 0.0 | 0.18 | 0.46 | 0.46 | 97 | 1014.9 |
| 20260505214504 | 11 | 236 | 0.0 | 0.0 | 0.18 | 0.46 | 0.46 | 97 | 1014.9 |
| 20260505214004 | 11 | 172 | 0.0 | 0.0 | 0.25 | 0.46 | 0.46 | 97 | 1014.7 |
| 20260505212504 | 11 | 137 | 0.0 | 3.2 | 0.33 | 0.46 | 0.46 | 96 | 1014.9 |
| 20260505212004 | 11 | 81 | 1.6 | 3.2 | 0.41 | 0.46 | 0.46 | 96 | 1014.9 |
| 20260505211504 | 12 | 231 | 0.0 | 1.6 | 0.41 | 0.46 | 0.46 | 96 | 1014.9 |
| 20260505210503 | 12 | 326 | 8.0 | 11.3 | 0.41 | 0.43 | 0.43 | 96 | 1014.9 |
| 20260505210004 | 12 | 317 | 3.2 | 8.0 | 0.33 | 0.36 | 0.36 | 96 | 1014.9 |
| 20260505205004 | 12 | 275 | 0.0 | 0.0 | 0.25 | 0.28 | 0.28 | 95 | 1014.6 |
| 20260505204504 | 12 | 292 | 0.0 | 0.0 | 0.25 | 0.28 | 0.28 | 94 | 1014.6 |
| 20260505204004 | 12 | 299 | 1.6 | 4.8 | 0.18 | 0.20 | 0.20 | 94 | 1014.6 |
| 20260505202504 | 12 | 314 | 0.0 | 9.7 | 0.10 | 0.13 | 0.13 | 92 | 1014.2 |
| 20260505202004 | 13 | 252 | 8.0 | 9.7 | 0.03 | 0.05 | 0.05 | 90 | 1014.2 |
| 20260505201504 | 13 | 263 | 8.0 | 9.7 | 0.03 | 0.05 | 0.05 | 89 | 1014.1 |
| 20260505201004 | 13 | 289 | 8.0 | 11.3 | 0.03 | 0.03 | 0.03 | 87 | 1013.9 |
| 20260505200504 | 13 | 280 | 9.7 | 11.3 | 0.03 | 0.03 | 0.03 | 86 | 1013.9 |
| 20260505195004 | 13 | 274 | 3.2 | 8.0 | 0.03 | 0.03 | 0.03 | 86 | 1013.6 |
| 20260505194504 | 13 | 278 | 4.8 | 11.3 | 0.03 | 0.03 | 0.03 | 86 | 1013.5 |
| 20260505194004 | 13 | 270 | 9.7 | 11.3 | 0.03 | 0.03 | 0.03 | 86 | 1013.2 |
| 20260505193504 | 13 | 277 | 4.8 | 4.8 | 0.03 | 0.03 | 0.03 | 87 | 1013.2 |
| 20260505193004 | 13 | 287 | 0.0 | 0.0 | 0.03 | 0.03 | 0.03 | 86 | 1012.9 |
| 20260505192504 | 14 | 358 | 0.0 | 0.0 | 0.03 | 0.03 | 0.03 | 84 | 1012.5 |
| 20260505192004 | 14 | 328 | 0.0 | 0.0 | 0.03 | 0.03 | 0.03 | 83 | 1012.5 |
| 20260505191004 | 15 | 276 | 3.2 | 4.8 | 0.00 | 0.00 | 0.00 | 77 | 1012.5 |
| 20260505190504 | 15 | 276 | 3.2 | 3.2 | 0.00 | 0.00 | 0.00 | 77 | 1012.5 |
| 20260505190004 | 15 | 276 | 3.2 | 3.2 | 0.00 | 0.00 | 0.00 | 73 | 1012.2 |
| 20260505185504 | 15 | 277 | 1.6 | 3.2 | 0.00 | 0.00 | 0.00 | 71 | 1012.4 |
| 20260505184503 | 15 | 257 | 3.2 | 4.8 | 0.00 | 0.00 | 0.00 | 69 | 1012.2 |
| 20260505184004 | 16 | 259 | 0.0 | 0.0 | 0.00 | 0.00 | 0.00 | 70 | 1012.2 |
| 20260505183504 | 16 | 289 | 0.0 | 0.0 | 0.00 | 0.00 | 0.00 | 69 | 1012.2 |
| 20260505183004 | 16 | 278 | 3.2 | 3.2 | 0.00 | 0.00 | 0.00 | 69 | 1012.2 |
| 20260505182505 | 16 | 274 | 3.2 | 8.0 | 0.00 | 0.00 | 0.00 | 69 | 1012.2 |
| 20260505182004 | 16 | 300 | 3.2 | 8.0 | 0.00 | 0.00 | 0.00 | 67 | 1012.2 |
| 20260505181504 | 16 | 288 | 4.8 | 8.0 | 0.00 | 0.00 | 0.00 | 65 | 1012.2 |
| 20260505181004 | 16 | 288 | 4.8 | 8.0 | 0.00 | 0.00 | 0.00 | 65 | 1012.2 |
| 20260505180005 | 16 | 252 | 3.2 | 9.7 | 0.00 | 0.00 | 0.00 | 68 | 1012.2 |
| 20260505175503 | 16 | 252 | 3.2 | 9.7 | 0.00 | 0.00 | 0.00 | 68 | 1012.2 |
| 20260505175004 | 16 | 276 | 0.0 | 3.2 | 0.00 | 0.00 | 0.00 | 69 | 1011.9 |
| 20260505174004 | 16 | 269 | 1.6 | 3.2 | 0.00 | 0.00 | 0.00 | 68 | 1012.2 |
| 20260505173505 | 17 | 263 | 1.6 | 4.8 | 0.00 | 0.00 | 0.00 | 67 | 1011.9 |
| 20260505173004 | 17 | 348 | 1.6 | 4.8 | 0.00 | 0.00 | 0.00 | 66 | 1011.9 |
| 20260505172504 | 17 | 348 | 1.6 | 4.8 | 0.00 | 0.00 | 0.00 | 66 | 1011.9 |
| 20260505171504 | 17 | 292 | 8.0 | 9.7 | 0.00 | 0.00 | 0.00 | 67 | 1011.9 |
| 20260505171004 | 17 | 292 | 6.4 | 9.7 | 0.00 | 0.00 | 0.00 | 67 | 1011.9 |
| 20260505170504 | 17 | 259 | 1.6 | 4.8 | 0.00 | 0.00 | 0.00 | 69 | 1011.9 |
| 20260505170004 | 18 | 274 | 1.6 | 4.8 | 0.00 | 0.00 | 0.00 | 70 | 1011.5 |
| 20260505165505 | 18 | 274 | 1.6 | 4.8 | 0.00 | 0.00 | 0.00 | 70 | 1011.5 |
| 20260505165005 | 18 | 59 | 3.2 | 8.0 | 0.00 | 0.00 | 0.00 | 70 | 1011.5 |
| 20260505164504 | 18 | 341 | 3.2 | 8.0 | 0.00 | 0.00 | 0.00 | 70 | 1011.5 |
| 20260505164005 | 18 | 341 | 3.2 | 8.0 | 0.00 | 0.00 | 0.00 | 70 | 1011.5 |
| 20260505163504 | 18 | 271 | 1.6 | 11.3 | 0.00 | 0.00 | 0.00 | 69 | 1011.9 |
| 20260505163004 | 18 | 259 | 8.0 | 11.3 | 0.00 | 0.00 | 0.00 | 67 | 1011.9 |
| 20260505162504 | 18 | 259 | 6.4 | 11.3 | 0.00 | 0.00 | 0.00 | 67 | 1011.9 |
| 20260505162004 | 19 | 116 | 0.0 | 0.0 | 0.00 | 0.00 | 0.00 | 66 | 1011.5 |
| 20260505161504 | 19 | 169 | 0.0 | 0.0 | 0.00 | 0.00 | 0.00 | 68 | 1011.9 |
| 20260505161004 | 19 | 169 | 0.0 | 0.0 | 0.00 | 0.00 | 0.00 | 68 | 1011.9 |
| 20260505160504 | 19 | 117 | 0.0 | 0.0 | 0.00 | 0.00 | 0.00 | 66 | 1012.2 |
| 20260505153004 | 18 | 124 | 0.0 | 0.0 | 0.00 | 0.00 | 0.00 | 69 | 1011.9 |
| 20260505152004 | 17 | 125 | 0.0 | 1.6 | 0.00 | 0.00 | 0.00 | 69 | 1011.9 |
| 20260505151004 | 17 | 271 | 0.0 | 1.6 | 0.00 | 0.00 | 0.00 | 72 | 1011.9 |
| 20260505150504 | 17 | 271 | 0.0 | 0.0 | 0.00 | 0.00 | 0.00 | 75 | 1011.9 |
| 20260505140504 | 20 | 282 | 8.0 | 16.1 | 0.00 | 0.00 | 0.00 | 55 | 1011.5 |
| 20260505125006 | 22 | 294 | 3.2 | 8.0 | 0.00 | 0.00 | 0.00 | 43 | 1011.5 |
| 20260505124006 | 22 | 284 | 3.2 | 9.7 | 0.00 | 0.00 | 0.00 | 41 | 1011.5 |
| 20260505123506 | 23 | 256 | 8.0 | 9.7 | 0.00 | 0.00 | 0.00 | 40 | 1011.5 |
| 20260505123006 | 23 | 302 | 1.6 | 3.2 | 0.00 | 0.00 | 0.00 | 40 | 1011.2 |
| 20260505122506 | 23 | 302 | 1.6 | 3.2 | 0.00 | 0.00 | 0.00 | 40 | 1011.2 |
| 20260505122006 | 23 | 293 | 1.6 | 3.2 | 0.00 | 0.00 | 0.00 | 40 | 1011.5 |